Printer-friendly version

IAU Minor Planet Center

Minor Planet Center

MPEC 2006-R29 : COMET P/2005 JY126 (CATALINA)

The following Minor Planet Electronic Circular may be linked-to from your own Web pages, but must not otherwise be redistributed electronically.


Read MPEC 2006-R28 Read MPEC 2006-R30


M.P.E.C. 2006-R29                                Issued 2006 Sept. 8, 19:34 UT

     The Minor Planet Electronic Circulars contain information on unusual
         minor planets and routine data on comets.  They are published
   on behalf of Commission 20 of the International Astronomical Union by the
          Minor Planet Center, Smithsonian Astrophysical Observatory,
                          Cambridge, MA 02138, U.S.A.

                  Supported in part by the Brinson Foundation
                  Supported in part by the TABASGO Foundation
             Prepared using the Tamkin Foundation Computer Network

                              MPC@CFA.HARVARD.EDU
          URL http://cfa-www.harvard.edu/iau/mpc.html  ISSN 1523-6714

                         COMET P/2005 JY126 (CATALINA)

Observations:
    PK05JC6Y  C2006 09 03.07541 03 18 41.93 +17 20 35.9          19.2 N ER029157
    PK05JC6Y  C2006 09 03.08999 03 18 42.35 +17 20 30.5          19.2 N ER029157
    PK05JC6Y  C2006 09 04.08166 03 19 10.03 +17 15 00.5          19.2 N ER029157
    PK05JC6Y  C2006 09 04.10319 03 19 10.61 +17 14 53.3          19.3 N ER029157

Observer details:
157 Frasso Sabino.  Observers R. Haver, R. Gorelli.  Measurer R. Haver.
    0.20-m f/6.5 Schmidt-Cassegrain + CCD.

Orbital elements:
    P/2005 JY126 (Catalina)
Epoch 2006 Mar. 6.0 TT = JDT 2453800.5
T 2006 Feb. 21.3281 TT                                  MPC
q   2.125986             (2000.0)            P               Q
n   0.1355974      Peri.  117.5883      +0.7991886      +0.5787513
a   3.752337       Node   207.9860      -0.5963070      +0.7973526
e   0.433423       Incl.   20.2360      +0.0756013      +0.1711017
P   7.27
From 137 observations 2005 Apr. 17-2006 Sept. 4, mean residual 0".6.

Ephemeris:
    P/2005 JY126 (Catalina)
Date    TT    R. A. (2000) Decl.     Delta      r     Elong.  Phase   m1    m2
2006 09 02    03 18.17   +17 26.4    2.073    2.565   107.6    22.0  17.2
2006 09 12    03 21.92   +16 25.7    1.992    2.604   116.6    20.2  17.2
2006 09 22    03 22.97   +15 09.6    1.921    2.643   126.4    17.8  17.1
2006 10 02    03 21.31   +13 39.5    1.864    2.683   136.9    14.8  17.1
2006 10 12    03 17.19   +11 58.7    1.827    2.724   147.8    11.2  17.2
2006 10 22    03 11.09   +10 11.8    1.814    2.766   158.9     7.4  17.2
2006 11 01    03 03.76   +08 25.8    1.827    2.807   168.6     4.0  17.3
2006 11 11    02 56.13   +06 48.0    1.870    2.849   169.4     3.7  17.4
2006 11 21    02 49.10   +05 24.9    1.943    2.892   160.2     6.6  17.6
2006 12 01    02 43.43   +04 20.8    2.042    2.934   149.4     9.8  17.7
2006 12 11    02 39.62   +03 37.4    2.166    2.977   138.7    12.6  17.9
2006 12 21    02 37.89   +03 13.9    2.309    3.019   128.3    14.8  18.1
2006 12 31    02 38.29   +03 08.3    2.469    3.062   118.5    16.4  18.3
2007 01 10    02 40.68   +03 17.4    2.640    3.105   109.1    17.4  18.5
2007 01 20    02 44.88   +03 38.2    2.819    3.148   100.3    17.9  18.7
2007 01 30    02 50.68   +04 07.9    3.002    3.190    91.9    18.0  18.9
2007 02 09    02 57.83   +04 43.5    3.187    3.233    83.8    17.7  19.1
2007 02 19    03 06.15   +05 23.0    3.369    3.275    76.1    17.0  19.3
2007 03 01    03 15.45   +06 04.5    3.547    3.317    68.7    16.2  19.5
2007 03 11    03 25.56   +06 46.1    3.718    3.359    61.5    15.1  19.6
2007 03 21    03 36.34   +07 26.7    3.880    3.400    54.5    13.8  19.8
2007 03 31    03 47.66   +08 05.0    4.032    3.442    47.8    12.4  19.9
2007 04 10    03 59.40   +08 40.1    4.172    3.483    41.3    10.9  20.0
2007 04 20    04 11.47   +09 11.2    4.299    3.524    35.0     9.4  20.1

Brian G. Marsden             (C) Copyright 2006 MPC           M.P.E.C. 2006-R29

Read MPEC 2006-R28 Read MPEC 2006-R30


Our Web policy. Index to the CBAT/MPC/ICQ pages.


Valid HTML 4.01!